H1 CPF 2 NER 2023 8 4 9 216 01 glonass146 H2 2216101 9146 54377 2023 8 4 0 0 0 2023 8 7 23 45 0 900 1 1 0 0 0 1 H9 10 0 60160 0.00000 0 10834965.356 -9815767.658 20928316.491 10 0 60160 900.00000 0 10620076.101 -7174636.974 22076686.844 10 0 60160 1800.00000 0 10600130.904 -4409739.540 22797282.879 10 0 60160 2700.00000 0 10787171.092 -1589220.308 23076034.473 10 0 60160 3600.00000 0 11181034.471 1217130.132 22907407.557 10 0 60160 4500.00000 0 11769312.826 3940528.236 22294520.466 10 0 60160 5400.00000 0 12527839.983 6515808.729 21249095.676 10 0 60160 6300.00000 0 13421691.335 8883887.240 19791246.874 10 0 60160 7200.00000 0 14406654.413 10993972.953 17949104.240 10 0 60160 8100.00000 0 15431110.236 12805439.767 15758283.778 10 0 60160 9000.00000 0 16438247.633 14289278.219 13261209.536 10 0 60160 9900.00000 0 17368518.290 15429067.422 10506300.560 10 0 60160 10800.00000 0 18162229.532 16221426.141 7547037.332 10 0 60160 11700.00000 0 18762165.405 16675923.760 4440925.132 10 0 60160 12600.00000 0 19116124.741 16814454.692 1248374.325 10 0 60160 13500.00000 0 19179267.855 16670102.558 -1968480.400 10 0 60160 14400.00000 0 18916171.180 16285542.341 -5146998.187 10 0 60160 15300.00000 0 18302501.238 15711048.590 -8225262.716 10 0 60160 16200.00000 0 17326235.426 15002194.829 -11143300.253 10 0 60160 17100.00000 0 15988376.342 14217342.647 -13844259.954 10 0 60160 18000.00000 0 14303128.095 13415028.038 -16275532.101 10 0 60160 18900.00000 0 12297526.012 12651356.903 -18389781.397 10 0 60160 19800.00000 0 10010534.556 11977521.043 -20145874.431 10 0 60160 20700.00000 0 7491650.939 11437540.633 -21509682.757 10 0 60160 21600.00000 0 4799072.811 11066329.103 -22454745.914 10 0 60160 22500.00000 0 1997506.751 10888162.348 -22962781.763 10 0 60160 23400.00000 0 -844290.783 10915616.657 -23024034.729 10 0 60160 24300.00000 0 -3656137.376 11149019.594 -22637455.945 10 0 60160 25200.00000 0 -6369104.285 11576436.210 -21810712.633 10 0 60160 26100.00000 0 -8918140.531 12174190.166 -20560027.403 10 0 60160 27000.00000 0 -11244532.936 12907896.851 -18909851.412 10 0 60160 27900.00000 0 -13298100.794 13733963.985 -16892378.469 10 0 60160 28800.00000 0 -15039035.121 14601495.691 -14546910.099 10 0 60160 29700.00000 0 -16439307.528 15454519.145 -11919084.441 10 0 60160 30600.00000 0 -17483591.897 16234439.604 -9059984.256 10 0 60160 31500.00000 0 -18169662.318 16882620.090 -6025141.697 10 0 60160 32400.00000 0 -18508252.785 17342977.063 -2873459.332 10 0 60160 33300.00000 0 -18522386.445 17564482.846 333931.596 10 0 60160 34200.00000 0 -18246204.285 17503469.649 3534853.465 10 0 60160 35100.00000 0 -17723343.873 17125638.511 6667282.381 10 0 60160 36000.00000 0 -17004937.296 16407688.884 9670543.107 10 0 60160 36900.00000 0 -16147313.060 15338500.531 12486476.090 10 0 60160 37800.00000 0 -15209498.733 13919818.043 15060554.620 10 0 60160 38700.00000 0 -14250629.093 12166408.935 17342931.275 10 0 60160 39600.00000 0 -13327368.174 10105688.009 19289394.249 10 0 60160 40500.00000 0 -12491452.751 7776822.647 20862216.021 10 0 60160 41400.00000 0 -11787459.611 5229354.901 22030878.821 10 0 60160 42300.00000 0 -11250889.564 2521396.115 22772663.596 10 0 60160 43200.00000 0 -10906648.071 -282532.795 23073091.566 10 0 60160 44100.00000 0 -10767985.961 -3113927.687 22926210.023 10 0 60160 45000.00000 0 -10835944.885 -5902895.382 22334716.605 10 0 60160 45900.00000 0 -11099331.285 -8580809.842 21309919.054 10 0 60160 46800.00000 0 -11535220.897 -11082921.581 19871530.268 10 0 60160 47700.00000 0 -12109973.735 -13350813.011 18047301.364 10 0 60160 48600.00000 0 -12780718.148 -15334598.328 15872498.462 10 0 60160 49500.00000 0 -13497242.677 -16994776.614 13389231.852 10 0 60160 50400.00000 0 -14204216.978 -18303660.729 10645649.266 10 0 60160 51300.00000 0 -14843648.688 -19246321.941 7695007.841 10 0 60160 52200.00000 0 -15357472.621 -19821010.274 4594642.088 10 0 60160 53100.00000 0 -15690162.386 -20039032.453 1404847.747 10 0 60160 54000.00000 0 -15791253.048 -19924092.309 -1812296.538 10 0 60160 54900.00000 0 -15617666.691 -19511121.410 -4994146.116 10 0 60160 55800.00000 0 -15135740.770 -18844649.540 -8078721.024 10 0 60160 56700.00000 0 -14322871.608 -17976784.510 -11005925.241 10 0 60160 57600.00000 0 -13168701.700 -16964887.567 -13718729.402 10 0 60160 58500.00000 0 -11675798.983 -15869043.851 -16164292.581 10 0 60160 59400.00000 0 -9859798.045 -14749435.992 -18295000.214 10 0 60160 60300.00000 0 -7748996.161 -13663732.969 -20069397.131 10 0 60160 61200.00000 0 -5383420.475 -12664605.452 -21452997.062 10 0 60160 62100.00000 0 -2813405.000 -11797473.057 -22418952.785 10 0 60160 63000.00000 0 -97736.834 -11098578.745 -22948574.151 10 0 60160 63900.00000 0 2698550.894 -10593471.286 -23031684.413 10 0 60160 64800.00000 0 5506647.257 -10295959.067 -22666808.698 10 0 60160 65700.00000 0 8256590.093 -10207578.335 -21861191.769 10 0 60160 66600.00000 0 10879941.713 -10317597.025 -20630645.594 10 0 60160 67500.00000 0 13312402.813 -10603552.656 -18999230.506 10 0 60160 68400.00000 0 15496256.551 -11032300.296 -16998776.842 10 0 60160 69300.00000 0 17382542.032 -11561525.154 -14668257.006 10 0 60160 70200.00000 0 18932867.996 -12141654.994 -12053020.617 10 0 60160 71100.00000 0 20120792.672 -12718090.883 -9203907.977 10 0 60160 72000.00000 0 20932713.938 -13233661.613 -6176259.390 10 0 60160 72900.00000 0 21368234.440 -13631197.950 -3028839.739 10 0 60160 73800.00000 0 21439988.248 -13856118.025 177300.733 10 0 60160 74700.00000 0 21172937.986 -13858914.907 3380007.289 10 0 60160 75600.00000 0 20603173.396 -13597441.686 6517220.471 10 0 60160 76500.00000 0 19776262.876 -13038898.028 9528171.814 10 0 60160 77400.00000 0 18745227.918 -12161434.720 12354552.741 10 0 60160 78300.00000 0 17568225.818 -10955308.731 14941634.621 10 0 60160 79200.00000 0 16306037.787 -9423540.043 17239319.103 10 0 60160 80100.00000 0 15019467.436 -7582042.092 19203099.235 10 0 60160 81000.00000 0 13766757.959 -5459219.403 20794913.723 10 0 60160 81900.00000 0 12601135.384 -3095047.841 21983878.704 10 0 60160 82800.00000 0 11568579.875 -539674.157 22746883.594 10 0 60160 83700.00000 0 10705917.590 2148408.853 23069040.032 10 0 60160 84600.00000 0 10039312.349 4904537.801 22943975.401 10 0 60160 85500.00000 0 9583219.998 7660316.512 22373965.078 10 0 60161 0.00000 0 9339849.306 10346216.678 21369900.359 10 0 60161 900.00000 0 9299152.299 12894236.528 19951091.137 10 0 60161 1800.00000 0 9439345.421 15240504.782 18144907.337 10 0 60161 2700.00000 0 9727940.052 17327727.231 15986262.867 10 0 60161 3600.00000 0 10123240.357 19107370.893 13516951.832 10 0 60161 4500.00000 0 10576246.014 20541496.001 10784848.154 10 0 60161 5400.00000 0 11032880.146 21604158.669 7842983.070 10 0 60161 6300.00000 0 11436448.548 22282324.885 4748517.737 10 0 60161 7200.00000 0 11730225.903 22576256.791 1561630.688 10 0 60161 8100.00000 0 11860058.778 22499354.468 -1655658.004 10 0 60161 9000.00000 0 11776873.925 22077459.480 -4840702.319 10 0 60161 9900.00000 0 11438984.083 21347649.490 -7931460.898 10 0 60161 10800.00000 0 10814091.812 20356575.112 -10867717.449 10 0 60161 11700.00000 0 9880904.669 19158409.806 -13592265.827 10 0 60161 12600.00000 0 8630291.609 17812500.321 -16052035.356 10 0 60161 13500.00000 0 7065930.164 16380817.909 -18199133.368 10 0 60161 14400.00000 0 5204415.767 14925318.927 -19991783.836 10 0 60161 15300.00000 0 3074827.612 13505327.090 -21395143.328 10 0 60161 16200.00000 0 717768.630 12175048.326 -22381978.298 10 0 60161 17100.00000 0 -1816080.606 10981323.157 -22933190.805 10 0 60161 18000.00000 0 -4467833.654 9961711.023 -23038182.904 10 0 60161 18900.00000 0 -7172617.527 9142986.477 -22695053.404 10 0 60161 19800.00000 0 -9862047.009 8540109.432 -21910623.968 10 0 60161 20700.00000 0 -12466850.909 8155711.370 -20700294.920 10 0 60161 21600.00000 0 -14919541.111 7980117.503 -19087734.394 10 0 60161 22500.00000 0 -17157013.776 7991902.227 -17104407.556 10 0 60161 23400.00000 0 -19122975.035 8158952.833 -14788955.703 10 0 60161 24300.00000 0 -20770091.101 8439995.123 -12186437.755 10 0 60161 25200.00000 0 -22061774.387 8786515.323 -9347449.268 10 0 60161 26100.00000 0 -22973532.462 9144996.233 -6327136.368 10 0 60161 27000.00000 0 -23493825.096 9459372.552 -3184123.933 10 0 60161 27900.00000 0 -23624395.109 9673601.328 20621.077 10 0 60161 28800.00000 0 -23380060.754 9734238.896 3224969.057 10 0 60161 29700.00000 0 -22787979.705 9592915.609 6366827.206 10 0 60161 30600.00000 0 -21886416.644 9208604.110 9385336.034 10 0 60161 31500.00000 0 -20723066.915 8549585.750 12222040.110 10 0 60161 32400.00000 0 -19353006.941 7595032.404 14822011.012 10 0 60161 33300.00000 0 -17836357.299 6336137.061 17134901.504 10 0 60161 34200.00000 0 -16235755.993 4776745.272 19115911.390 10 0 60161 35100.00000 0 -14613746.984 2933460.203 20726647.306 10 0 60161 36000.00000 0 -13030192.301 835215.673 21935860.735 10 0 60161 36900.00000 0 -11539814.887 -1477666.586 22720050.709 10 0 60161 37800.00000 0 -10189973.825 -3954898.049 23063920.083 10 0 60161 38700.00000 0 -9018763.979 -6538065.884 22960676.776 10 0 60161 39600.00000 0 -8053518.793 -9162822.363 22412173.970 10 0 60161 40500.00000 0 -7309778.462 -11761332.318 21428885.983 10 0 60161 41400.00000 0 -6790766.577 -14264878.838 20029719.366 10 0 60161 42300.00000 0 -6487397.454 -16606520.374 18241661.627 10 0 60161 43200.00000 0 -6378814.307 -18723689.761 16099272.991 10 0 60161 44100.00000 0 -6433436.302 -20560627.460 13644029.559 10 0 60161 45000.00000 0 -6610471.029 -22070547.521 10923529.287 10 0 60161 45900.00000 0 -6861829.111 -23217445.373 7990575.088 10 0 60161 46800.00000 0 -7134360.300 -23977471.069 4902152.107 10 0 60161 47700.00000 0 -7372316.300 -24339809.468 1718318.835 10 0 60161 48600.00000 0 -7519935.444 -24307029.522 -1498966.200 10 0 60161 49500.00000 0 -7524038.660 -23894887.251 -4687058.684 10 0 60161 50400.00000 0 -7336525.258 -23131590.206 -7783859.007 10 0 60161 51300.00000 0 -6916661.065 -22056554.378 -10729033.780 10 0 60161 52200.00000 0 -6233060.127 -20718706.216 -13465203.215 10 0 60161 53100.00000 0 -5265274.223 -19174402.005 -15939069.901 10 0 60161 54000.00000 0 -4004921.329 -17485053.162 -18102465.853 10 0 60161 54900.00000 0 -2456303.847 -15714558.471 -19913296.639 10 0 60161 55800.00000 0 -636489.413 -13926652.312 -21336363.660 10 0 60161 56700.00000 0 1425149.992 -12182281.141 -22344048.513 10 0 60161 57600.00000 0 3687921.860 -10537118.854 -22916846.327 10 0 60161 58500.00000 0 6101278.947 -9039325.393 -23043738.216 10 0 60161 59400.00000 0 8606705.848 -7727642.126 -22722396.329 10 0 60161 60300.00000 0 11139947.600 -6629902.926 -21959218.336 10 0 60161 61200.00000 0 13633487.283 -5762022.044 -20769191.533 10 0 60161 62100.00000 0 16019169.433 -5127499.504 -19175590.009 10 0 60161 63000.00000 0 18230860.146 -4717462.858 -17209511.509 10 0 60161 63900.00000 0 20207033.406 -4511241.558 -14909263.573 10 0 60161 64800.00000 0 21893176.462 -4477447.865 -12319611.419 10 0 60161 65700.00000 0 23243914.773 -4575517.013 -9490902.518 10 0 60161 66600.00000 0 24224768.896 -4757640.286 -6478085.210 10 0 60161 67500.00000 0 24813471.130 -4971008.321 -3339640.593 10 0 60161 68400.00000 0 25000788.194 -5160269.191 -136448.501 10 0 60161 69300.00000 0 24790816.849 -5270097.047 3069390.346 10 0 60161 70200.00000 0 24200741.296 -5247762.701 6215753.345 10 0 60161 71100.00000 0 23260063.580 -5045597.712 9241693.177 10 0 60161 72000.00000 0 22009340.005 -4623248.173 12088610.314 10 0 60161 72900.00000 0 20498476.892 -3949623.372 14701378.797 10 0 60161 73800.00000 0 18784657.083 -3004457.297 17029404.236 10 0 60161 74700.00000 0 16929983.599 -1779417.132 19027594.404 10 0 60161 75600.00000 0 14998938.277 -278711.661 20657224.590 10 0 60161 76500.00000 0 13055760.567 1480826.898 21886681.899 10 0 60161 77400.00000 0 11161854.786 3470192.389 22692074.825 10 0 60161 78300.00000 0 9373332.782 5649168.549 23057696.907 10 0 60161 79200.00000 0 7738793.336 7967769.029 22976335.693 10 0 60161 80100.00000 0 6297429.964 10368095.785 22449420.907 10 0 60161 81000.00000 0 5077545.334 12786540.718 21487008.409 10 0 60161 81900.00000 0 4095533.901 15156240.981 20107599.322 10 0 60161 82800.00000 0 3355375.192 17409687.449 18337796.636 10 0 60161 83700.00000 0 2848659.102 19481379.013 16211804.490 10 0 60161 84600.00000 0 2555142.472 21310412.778 13770778.388 10 0 60161 85500.00000 0 2443813.977 22842902.203 11062037.593 10 0 60162 0.00000 0 2474422.812 24034121.683 8138154.110 10 0 60162 900.00000 0 2599406.888 24850287.592 5055933.638 10 0 60162 1800.00000 0 2766138.834 25269898.534 1875311.939 10 0 60162 2700.00000 0 2919394.309 25284579.495 -1341816.904 10 0 60162 3600.00000 0 3003937.133 24899391.668 -4532813.079 10 0 60162 4500.00000 0 2967110.350 24132594.733 -7635521.347 10 0 60162 5400.00000 0 2761321.821 23014870.993 -10589493.584 10 0 60162 6300.00000 0 2346317.190 21588043.894 -13337178.422 10 0 60162 7200.00000 0 1691142.172 19903345.189 -15825053.440 10 0 60162 8100.00000 0 775709.364 18019304.268 -18004676.725 10 0 60162 9000.00000 0 -408098.176 15999349.248 -19833636.501 10 0 60162 9900.00000 0 -1855834.410 13909221.511 -21276379.758 10 0 60162 10800.00000 0 -3550434.798 11814313.027 -22304903.697 10 0 60162 11700.00000 0 -5462700.762 9777038.645 -22899296.692 10 0 60162 12600.00000 0 -7552304.170 7854353.655 -23048118.779 10 0 60162 13500.00000 0 -9769269.904 6095520.269 -22748614.977 10 0 60162 14400.00000 0 -12055874.510 4540215.699 -22006758.119 10 0 60162 15300.00000 0 -14348881.488 3217059.792 -20837121.227 10 0 60162 16200.00000 0 -16582019.863 2142622.161 -19262582.723 10 0 60162 17100.00000 0 -18688602.613 1320948.420 -17313870.936 10 0 60162 18000.00000 0 -20604175.864 743623.237 -15028957.382 10 0 60162 18900.00000 0 -22269088.634 390365.356 -12452311.100 10 0 60162 19800.00000 0 -23630876.379 230127.474 -9634028.895 10 0 60162 20700.00000 0 -24646359.504 222652.839 -6628858.709 10 0 60162 21600.00000 0 -25283370.002 320421.422 -3495135.272 10 0 60162 22500.00000 0 -25522035.028 470902.402 -293648.771 10 0 60162 23400.00000 0 -25355564.726 619017.137 2913531.418 10 0 60162 24300.00000 0 -24790512.352 709708.192 6064255.272 10 0 60162 25200.00000 0 -23846496.692 690505.849 9097489.944 10 0 60162 26100.00000 0 -22555399.076 513983.869 11954494.030 10 0 60162 27000.00000 0 -20960068.960 140001.143 14579946.137 10 0 60162 27900.00000 0 -19112592.277 -462365.070 16923006.659 10 0 60162 28800.00000 0 -17072194.577 -1313275.652 18938293.067 10 0 60162 29700.00000 0 -14902865.860 -2421041.005 20586750.769 10 0 60162 30600.00000 0 -12670805.153 -3781533.604 21836403.639 10 0 60162 31500.00000 0 -10441790.177 -5378127.380 22662970.454 10 0 60162 32400.00000 0 -8278580.327 -7182167.920 23050335.896 10 0 60162 33300.00000 0 -6238459.744 -9153955.682 22990867.260 10 0 60162 34200.00000 0 -4371021.590 -11244203.239 22485570.608 10 0 60162 35100.00000 0 -2716284.808 -13395907.976 21544082.810 10 0 60162 36000.00000 0 -1303221.090 -15546564.308 20184498.740 10 0 60162 36900.00000 0 -148753.180 -17630625.028 18433035.740 10 0 60162 37800.00000 0 742733.815 -19582110.608 16323540.441 10 0 60162 38700.00000 0 1379347.515 -21337258.523 13896846.032 10 0 60162 39600.00000 0 1781111.430 -22837102.203 11199991.069 10 0 60162 40500.00000 0 1978880.185 -24029871.567 8285313.855 10 0 60162 41400.00000 0 2012792.434 -24873113.808 5209439.203 10 0 60162 42300.00000 0 1930326.827 -25335444.367 2032176.980 10 0 60162 43200.00000 0 1784043.689 -25397853.195 -1184645.974 10 0 60162 44100.00000 0 1629108.788 -25054510.030 -4378397.242 10 0 60162 45000.00000 0 1520705.264 -24313033.552 -7486868.898 10 0 60162 45900.00000 0 1511444.899 -23194212.117 -10449501.051 10 0 60162 46800.00000 0 1648890.091 -21731187.273 -13208573.687 10 0 60162 47700.00000 0 1973293.311 -19968134.244 -15710342.210 10 0 60162 48600.00000 0 2515651.428 -17958495.125 -17906093.437 10 0 60162 49500.00000 0 3296158.747 -15762839.525 -19753100.607 10 0 60162 50400.00000 0 4323125.374 -13446443.197 -21215458.302 10 0 60162 51300.00000 0 5592407.524 -11076686.891 -22264780.856 10 0 60162 52200.00000 0 7087374.419 -8720384.901 -22880750.909 10 0 60162 53100.00000 0 8779413.561 -6441155.413 -23051507.902 10 0 60162 54000.00000 0 10628953.291 -4296942.462 -22773869.672 10 0 60162 54900.00000 0 12586959.747 -2337792.413 -22053383.660 10 0 60162 55800.00000 0 14596845.375 -603976.880 -20904207.590 10 0 60162 56700.00000 0 16596708.992 875461.070 -19348822.755 10 0 60162 57600.00000 0 18521813.593 2083678.504 -17417586.203 10 0 60162 58500.00000 0 20307198.282 3016483.510 -15148131.162 10 0 60162 59400.00000 0 21890315.244 3682248.808 -12584627.850 10 0 60162 60300.00000 0 23213581.783 4101293.999 -9776919.415 10 0 60162 61200.00000 0 24226741.099 4304764.570 -6779550.113 10 0 60162 62100.00000 0 24888933.636 4333056.722 -3650704.788 10 0 60162 63000.00000 0 25170393.019 4233855.903 -451080.356 10 0 60162 63900.00000 0 25053696.328 4059872.930 2757288.765 10 0 60162 64800.00000 0 24534517.173 3866373.909 5912228.610 10 0 60162 65700.00000 0 23621850.686 3708608.582 8952624.027 10 0 60162 66600.00000 0 22337701.588 3639245.646 11819594.607 10 0 60162 67500.00000 0 20716248.617 3705923.060 14457625.992 10 0 60162 68400.00000 0 18802520.246 3949016.326 16815635.398 10 0 60162 69300.00000 0 16650636.630 4399718.499 18847951.594 10 0 60162 70200.00000 0 14321690.406 5078512.631 20515191.285 10 0 60162 71100.00000 0 11881353.635 5994101.066 21785015.899 10 0 60162 72000.00000 0 9397309.260 7142837.120 22632754.887 10 0 60162 72900.00000 0 6936612.502 8508684.019 23041884.088 10 0 60162 73800.00000 0 4563090.414 10063704.268 23004350.173 10 0 60162 74700.00000 0 2334886.328 11769060.775 22520734.760 10 0 60162 75600.00000 0 302250.071 13576489.924 21600254.557 10 0 60162 76500.00000 0 -1494335.082 15430187.147 20260596.607 10 0 60162 77400.00000 0 -3025611.319 17269028.155 18527590.649 10 0 60162 78300.00000 0 -4274530.569 19029034.651 16434723.522 10 0 60162 79200.00000 0 -5236723.102 20645982.630 14022503.537 10 0 60162 80100.00000 0 -5920430.696 22058044.676 11337685.776 10 0 60162 81000.00000 0 -6345907.039 23208355.581 8432372.187 10 0 60162 81900.00000 0 -6544310.450 24047393.083 5363003.165 10 0 60162 82800.00000 0 -6556135.654 24535072.693 2189259.892 10 0 60162 83700.00000 0 -6429251.157 24642467.112 -1027101.063 10 0 60162 84600.00000 0 -6216625.902 24353076.370 -4223457.620 10 0 60162 85500.00000 0 -5973842.433 23663593.637 -7337551.968 10 0 60163 0.00000 0 -5756503.285 22584133.265 -10308714.779 10 0 60163 900.00000 0 -5617641.913 21137909.765 -13079060.242 10 0 60163 1800.00000 0 -5605249.818 19360382.142 -15594623.317 10 0 60163 2700.00000 0 -5760025.807 17297897.452 -17806421.208 10 0 60163 3600.00000 0 -6113444.416 15005892.023 -19671413.509 10 0 60163 4500.00000 0 -6686226.286 12546725.754 -21153343.389 10 0 60163 5400.00000 0 -7487276.002 9987240.824 -22223443.007 10 0 60163 6300.00000 0 -8513132.834 7396147.480 -22860989.648 10 0 60163 7200.00000 0 -9747957.769 4841346.538 -23053702.212 10 0 60163 8100.00000 0 -11164057.450 2387300.398 -22797971.062 10 0 60163 9000.00000 0 -12722922.853 92561.927 -22098917.580 10 0 60163 9900.00000 0 -14376738.822 -1992436.522 -20970283.124 10 0 60163 10800.00000 0 -16070300.855 -3827242.992 -19434150.394 10 0 60163 11700.00000 0 -17743258.515 -5382818.797 -17520503.322 10 0 60163 12600.00000 0 -19332591.254 -6642486.515 -15266634.688 10 0 60163 13500.00000 0 -20775212.827 -7602355.760 -12716413.487 10 0 60163 14400.00000 0 -22010595.265 -8271211.213 -9919426.639 10 0 60163 15300.00000 0 -22983302.637 -8669869.935 -6930012.045 10 0 60163 16200.00000 0 -23645328.775 -8830037.071 -3806201.973 10 0 60163 17100.00000 0 -23958141.448 -8792709.923 -608597.378 10 0 60163 18000.00000 0 -23894347.840 -8606199.044 2600804.949 10 0 60163 18900.00000 0 -23438912.066 -8323850.820 5759809.711 10 0 60163 19800.00000 0 -22589874.258 -8001568.177 8807222.015 10 0 60163 20700.00000 0 -21358541.431 -7695234.214 11684024.922 10 0 60163 21600.00000 0 -19769142.337 -7458147.316 14334513.447 10 0 60163 22500.00000 0 -17857960.607 -7338575.538 16707363.788 10 0 60163 23400.00000 0 -15671981.947 -7377532.892 18756617.924 10 0 60163 24300.00000 0 -13267111.039 -7606870.771 20442565.468 10 0 60163 25200.00000 0 -10706031.307 -8047764.583 21732506.663 10 0 60163 26100.00000 0 -8055795.275 -8709659.341 22601382.523 10 0 60163 27000.00000 0 -5385244.116 -9589718.959 23032260.561 10 0 60163 27900.00000 0 -2762361.961 -10672803.364 23016666.969 10 0 60163 28800.00000 0 -251673.284 -11931975.720 22554758.736 10 0 60163 29700.00000 0 2088209.961 -13329520.254 21655331.907 10 0 60163 30600.00000 0 4206790.720 -14818429.959 20335664.903 10 0 60163 31500.00000 0 6063547.931 -16344303.779 18621198.787 10 0 60163 32400.00000 0 7629379.345 -17847575.549 16545059.245 10 0 60163 33300.00000 0 8887566.077 -19265982.651 14147428.048 10 0 60163 34200.00000 0 9834218.528 -20537171.724 11474774.830 10 0 60163 35100.00000 0 10478184.827 -21601332.299 8578962.910 10 0 60163 36000.00000 0 10840425.510 -22403747.405 5516245.708 10 0 60163 36900.00000 0 10952880.669 -22897152.930 2346172.938 10 0 60163 37800.00000 0 10856877.573 -23043805.116 -869572.047 10 0 60163 38700.00000 0 10601146.506 -22817167.448 -4068380.543 10 0 60163 39600.00000 0 10239529.550 -22203144.137 -7187947.910 10 0 60163 40500.00000 0 9828480.485 -21200806.559 -10167498.915 10 0 60163 41400.00000 0 9424463.037 -19822580.625 -12948983.810 10 0 60163 42300.00000 0 9081359.240 -18093886.140 -15478220.428 10 0 60163 43200.00000 0 8847999.157 -16052242.643 -17705958.923 10 0 60163 44100.00000 0 8765917.917 -13745879.027 -19588847.523 10 0 60163 45000.00000 0 8867436.107 -11231905.333 -21090279.912 10 0 60163 45900.00000 0 9174145.463 -8574123.596 -22181107.585 10 0 60163 46800.00000 0 9695864.281 -5840569.662 -22840203.513 10 0 60163 47700.00000 0 10430106.784 -3100889.001 -23054866.612 10 0 60163 48600.00000 0 11362088.640 -423656.118 -22821059.840 10 0 60163 49500.00000 0 12465268.081 2126250.873 -22143478.113 10 0 60163 50400.00000 0 13702399.378 4490111.673 -21035445.593 10 0 60163 51300.00000 0 15027053.853 6617559.648 -19518645.137 10 0 60163 52200.00000 0 16385544.035 8468422.005 -17622685.925 10 0 60163 53100.00000 0 17719169.710 10014129.297 -15384518.291 10 0 60163 54000.00000 0 18966691.258 11238637.466 -12847707.649 10 0 60163 54900.00000 0 20066926.250 12138826.140 -10061581.995 10 0 60163 55800.00000 0 20961360.301 12724358.787 -7080269.890 10 0 60163 56700.00000 0 21596662.667 13017012.810 -3961647.796 10 0 60163 57600.00000 0 21927001.276 13049509.745 -766217.322 10 0 60163 58500.00000 0 21916060.316 12863896.433 2444065.779 10 0 60163 59400.00000 0 21538676.136 12509546.618 5606988.245 10 0 60163 60300.00000 0 20782023.146 12040868.022 8661278.617 10 0 60163 61200.00000 0 19646300.284 11514811.940 11547786.349 10 0 60163 62100.00000 0 18144889.307 10988290.345 14210618.435 10 0 60163 63000.00000 0 16303978.120 10515609.040 16598212.316 10 0 60163 63900.00000 0 14161664.317 10146024.453 18664325.073 10 0 60163 64800.00000 0 11766575.536 9921526.330 20368920.765 10 0 60163 65700.00000 0 9176062.885 9874939.075 21678939.627 10 0 60163 66600.00000 0 6454041.180 10028421.203 22568935.051 10 0 60163 67500.00000 0 3668564.107 10392425.958 23021566.653 10 0 60163 68400.00000 0 889233.189 10965167.125 23027940.175 10 0 60163 69300.00000 0 -1815453.587 11732613.278 22587787.576 10 0 60163 70200.00000 0 -4380705.063 12669011.953 21709483.370 10 0 60163 71100.00000 0 -6747885.438 13737923.294 20409896.032 10 0 60163 72000.00000 0 -8866707.245 14893721.487 18714076.173 10 0 60163 72900.00000 0 -10697078.243 16083502.643 16654786.135 10 0 60163 73800.00000 0 -12210525.586 17249320.454 14271878.623 10 0 60163 74700.00000 0 -13391137.759 18330656.729 11611535.047 10 0 60163 75600.00000 0 -14235984.739 19267023.414 8725377.154 10 0 60163 76500.00000 0 -14754998.479 20000586.524 5669468.369 10 0 60163 77400.00000 0 -14970318.554 20478700.749 2503223.901 10 0 60163 78300.00000 0 -14915130.518 20656246.709 -711749.097 10 0 60163 79200.00000 0 -14632046.257 20497670.690 -3912858.203 10 0 60163 80100.00000 0 -14171095.364 19978638.989 -7037754.730 10 0 60163 81000.00000 0 -13587413.421 19087235.253 -10025559.892 10 0 60163 81900.00000 0 -12938726.218 17824648.598 -12818062.918 10 0 60163 82800.00000 0 -12282737.790 16205322.081 -15360866.363 10 0 60163 83700.00000 0 -11674534.224 14256554.197 -17604455.151 10 0 60163 84600.00000 0 -11164114.420 12017569.465 -19505167.636 10 0 60163 85500.00000 0 -10794153.317 9538096.771 -21026049.185 99